RH
76 84 90 95 100 100 100 100 100 100 99 100 99 100 95 96 98 100 100 99 98 95 98 95 100 98 99 69 85 98 78 72 74 90 98 100 98 95 83 94 93 90 87 76
100 100 100 100 100 81 79 82 95 97 90 100 96 99 100 99 89 96 100 97 90 92 93 96 99 98 98 99 100 98 100 98 98 97 81 80 96 98 98 100 96 87 78 75
100 100 100 98 95 100 100 99 98 76 79 84 79 97 80 62 84 63 73 78 70 75 81 84 80 89 92 98 97 100 98 95 96 97 99 99 90 93 99 97 97 96 96 95
83 98 97 92 98 100 100 99 100 100 100 100 99 86 80 73 61 47 44 51 48 35 34 53 61 42 69 93 96 96 99 100 99 96 100 98 97 100 100 97 97 97 98 97
67 81 76 100 100 98 92 100 100 82 100 96 93 81 88 70 53 41 29 25 24 20 19 18 22 20 20 50 92 55 50 45 95 90 93 96 99 100 96 99 97 97 98 95
70 88 92 100 100 99 98 100 100 86 80 68 62 78 58 58 32 29 26 24 22 20 18 17 15 13 13 17 29 10 11 9 15 39 84 70 92 89 90 98 94 99 98 98
92 84 71 97 100 100 99 94 82 86 79 64 53 58 62 57 49 39 31 29 27 25 22 18 17 16 14 13 11 11 11 10 10 12 22 31 53 51 76 91 69 82 96 92
96 82 91 79 91 94 99 100 100 90 100 92 79 66 56 49 42 39 35 32 31 28 25 23 21 19 16 14 14 14 12 10 9 9 9 9 14 20 29 51 55 17 51 97
100 100 100 76 100 100 100 98 90 82 73 58 32 22 20 25 26 27 27 26 25 27 27 27 27 27 25 21 20 20 18 15 11 9 9 8 7 8 11 17 23 28 13 58
100 99 100 99 100 99 96 73 47 32 27 23 18 16 16 16 17 17 15 13 11 11 11 11 11 13 16 20 20 20 22 22 22 15 14 11 8 7 7 8 9 7 6 13
100 98 100 100 87 80 50 34 26 27 17 17 17 18 18 17 18 17 15 14 13 12 10 9 8 8 8 7 8 10 12 13 15 17 19 22 17 12 11 10 9 8 8 7
92 99 100 96 72 56 36 20 17 14 17 22 26 24 21 19 17 17 16 17 15 10 8 7 7 6 6 6 6 6 6 6 7 9 11 12 18 19 17 13 12 12 11 10
40 33 27 24 23 20 16 16 20 28 25 20 20 19 20 20 20 18 19 19 14 12 10 7 7 7 8 12 12 12 9 7 7 6 5 6 8 14 18 17 14 12 12 10
28 27 32 34 35 32 33 37 30 24 22 21 20 18 17 19 22 24 22 19 19 33 66 99 97 98 95 96 100 99 100 94 81 39 12 8 6 7 11 18 18 16 14 13
49 46 30 30 36 47 35 33 31 27 24 21 20 21 25 66 92 48 45 91 100 98 100 100 100 100 95 77 80 84 79 87 97 100 53 10 8 7 10 14 46 100 64 92
99 74 60 33 45 42 43 36 31 26 20 19 27 32 77 100 100 100 100 100 100 100 100 100 100 98 100 89 100 56 37 95 100 67 15 10 12 13 16 82 67 78 97 83
76 71 49 50 48 50 44 39 29 24 19 21 29 34 82 100 100 100 100 100 100 100 100 100 100 100 100 100 86 63 47 41 28 24 24 87 100 100 100 100 100 100 100 100
36 39 60 68 74 59 50 43 38 33 31 24 29 31 44 75 97 100 100 100 100 100 100 100 100 99 99 100 88 65 100 99 100 100 100 100 100 100 100 100 100 100 100 100
56 70 96 94 86 78 69 53 43 42 40 35 34 32 26 33 62 96 100 100 100 100 100 100 100 100 100 100 92 88 100 98 100 100 100 100 100 100 100 100 100 100 100 100
51 55 68 75 74 72 71 61 58 49 42 40 34 29 26 23 42 88 99 100 100 100 100 100 100 100 100 100 99 100 100 100 100 100 100 100 100 100 100 100 100 100 100 89
46 45 50 54 54 49 48 54 61 53 45 41 40 32 25 24 21 61 91 100 100 100 100 100 100 100 100 100 100 100 100 100 100 100 100 100 100 100 100 100 100 85 61 72
22 33 40 43 45 47 49 49 52 66 63 51 42 36 32 24 24 22 74 98 100 100 100 100 100 100 100 100 100 100 100 100 100 100 100 100 100 91 65 53 69 99 100 84
12 10 9 9 13 20 29 38 46 52 52 55 53 54 47 33 25 27 24 74 96 100 100 100 100 100 100 100 100 100 100 100 100 100 100 100 87 88 90 95 100 96 80 71
29 25 19 14 10 8 8 9 16 31 57 73 72 64 61 49 38 32 33 27 77 100 100 100 100 100 100 100 100 100 100 100 100 100 100 100 100 100 100 91 61 36 29 26
33 26 20 16 12 9 7 7 7 8 11 40 88 91 73 72 66 53 44 40 32 85 100 100 100 100 100 100 100 100 100 100 100 100 96 80 64 54 42 33 40 72 96 100
37 34 24 19 16 8 6 5 6 7 8 10 14 73 100 91 83 86 73 61 48 33 84 100 100 100 100 100 100 100 100 100 100 100 100 100 100 100 100 100 98 85 68 60
42 36 29 24 22 9 5 5 5 7 8 10 14 17 59 99 100 97 87 73 60 48 33 65 99 100 100 100 100 100 100 100 100 100 100 100 100 98 86 75 83 92 96 98
Wind_Speed
45 49 45 41 37 31 37 34 41 50 35 37 38 38 47 44 42 43 44 47 40 49 47 47 47 59 59 57 60 71 62 60 65 67 67 70 69 68 70 65 64 64 63 64
23 24 27 28 29 45 50 48 47 45 44 45 41 29 37 42 46 44 48 52 52 49 45 45 39 44 48 57 66 66 72 70 74 66 65 68 67 78 69 64 62 63 64 66
29 25 24 21 25 27 27 31 30 38 36 29 35 29 36 62 62 55 55 55 56 58 61 59 56 56 56 55 49 56 63 66 66 75 72 75 68 70 79 73 69 65 67 62
47 45 40 29 26 26 23 22 25 26 20 19 22 32 40 42 45 52 58 58 64 59 55 64 67 67 64 63 61 57 57 51 55 51 49 61 73 76 79 81 73 64 65 64
28 30 37 25 19 24 24 23 28 36 35 39 39 42 41 43 46 50 57 52 50 54 54 49 56 60 59 65 63 60 65 61 66 60 59 54 48 52 61 68 71 69 66 61
21 19 17 23 24 29 30 30 33 36 37 37 31 36 35 38 47 45 43 44 45 48 48 47 49 52 48 48 55 55 50 53 54 55 64 63 62 61 46 43 42 60 67 60
10 17 20 24 20 17 23 28 30 30 31 32 34 35 35 36 38 43 45 43 46 48 48 49 50 51 52 51 52 52 50 51 51 49 50 53 55 54 55 52 46 45 62 56
11 12 18 21 23 25 25 27 28 29 29 29 31 33 34 36 39 41 45 47 48 50 51 51 52 54 55 54 52 52 52 52 54 50 50 51 52 51 52 48 52 45 52 62
16 8 18 17 18 28 33 30 27 27 28 30 32 32 32 33 34 37 41 45 47 49 50 50 52 54 56 55 55 55 54 51 53 53 52 55 54 53 53 54 51 51 48 59
13 8 6 14 17 19 16 18 21 24 28 32 34 35 36 37 40 42 44 46 48 49 51 51 53 55 57 55 57 59 58 54 51 51 51 56 56 54 54 54 54 55 54 58
9 10 5 8 19 17 18 20 24 26 33 37 38 40 42 41 41 42 44 45 48 50 52 51 53 54 53 54 58 62 63 61 60 53 51 55 55 55 53 53 52 51 50 52
14 14 17 18 19 21 22 28 31 33 28 24 23 25 29 32 35 38 40 42 44 46 48 48 51 53 53 53 53 55 57 60 65 64 60 59 58 54 50 48 46 43 41 42
19 22 25 26 27 28 30 29 21 17 18 22 26 29 32 36 39 42 45 47 47 38 37 41 44 42 42 42 44 44 46 48 52 56 60 66 63 57 51 47 43 41 39 36
27 23 21 22 20 19 17 14 14 17 20 25 30 35 39 43 45 38 32 26 25 29 30 27 27 29 30 30 29 33 35 38 40 40 44 52 58 60 53 47 44 42 41 40
27 25 20 18 16 13 9 12 14 19 25 30 36 44 32 13 18 18 16 17 24 24 20 21 18 12 13 16 21 26 28 29 31 37 38 40 42 49 46 44 34 34 36 35
21 20 19 14 12 10 11 13 17 21 24 29 35 21 8 15 21 18 19 22 19 17 18 14 11 13 14 8 10 12 8 17 23 24 28 31 31 32 34 33 35 32 34 35
7 7 8 10 10 11 13 15 17 19 23 28 33 20 15 19 20 20 22 21 16 16 17 13 6 8 2 8 3 3 12 18 21 29 38 39 26 22 32 39 38 37 40 39
3 6 10 12 13 15 16 17 19 20 23 25 29 31 21 22 22 21 19 15 14 15 15 14 8 4 7 6 3 12 17 16 16 21 24 23 24 24 30 35 39 40 42 37
11 13 15 17 19 20 21 22 23 24 24 25 26 28 28 25 23 21 19 12 12 14 14 10 6 5 6 3 14 14 13 10 9 13 21 29 30 32 32 35 32 33 34 34
19 20 21 22 24 26 27 26 26 26 25 25 26 25 27 28 25 19 18 14 10 10 10 8 6 3 9 7 10 11 11 10 9 12 18 19 18 23 25 22 23 25 27 30
27 28 30 31 32 32 31 32 32 29 27 26 26 26 25 26 26 21 17 16 10 6 7 8 6 5 2 6 12 13 12 11 8 6 10 17 16 20 25 26 29 34 34 31
31 34 36 38 39 40 40 39 37 35 33 32 31 29 28 26 25 24 18 15 13 8 5 7 9 8 8 10 9 8 11 15 15 16 20 23 27 28 29 29 28 25 21 20
24 26 28 31 35 40 43 44 43 41 39 38 37 34 30 29 27 22 21 17 13 10 7 8 10 10 11 13 19 20 20 18 17 20 25 30 32 33 32 31 28 24 22 21
28 29 30 30 31 32 33 37 41 42 42 40 36 36 33 31 27 24 21 19 14 11 10 9 11 12 13 16 21 25 29 31 31 30 31 31 31 27 23 21 21 22 21 21
31 32 34 35 35 34 35 35 35 36 40 42 39 38 36 33 30 27 24 21 17 12 11 11 12 13 16 18 20 22 28 28 26 24 24 23 24 25 26 26 26 27 27 25
34 35 35 38 40 38 36 36 36 36 37 39 39 42 40 37 34 31 29 26 22 15 12 12 12 14 16 19 23 24 24 24 27 29 29 30 29 29 28 26 24 22 23 24
36 36 37 39 44 41 38 37 36 35 36 34 36 38 42 42 38 32 30 28 25 23 16 13 13 15 17 20 23 23 24 24 24 25 25 25 24 24 24 25 27 27 26 25
Wind_Direction
264 266 264 260 248 242 241 249 253 255 265 268 261 257 256 256 245 238 242 236 231 231 233 234 233 238 235 242 245 246 245 246 243 246 245 243 242 242 241 240 239 240 242 244
247 249 256 249 258 273 269 279 280 274 278 275 272 265 268 267 261 267 255 253 246 243 246 248 252 240 231 233 237 237 237 239 234 239 245 246 250 240 236 237 242 243 244 245
230 233 237 244 250 247 254 269 279 272 277 276 275 275 276 275 275 279 274 271 273 272 270 267 268 256 252 239 243 243 237 242 245 240 237 240 245 249 249 243 248 248 240 238
250 254 261 259 271 261 266 269 272 265 257 263 257 274 285 286 284 282 282 280 280 280 280 279 280 281 275 265 273 274 253 243 237 235 242 243 243 242 245 244 247 245 243 242
266 269 263 259 258 285 283 265 267 271 268 272 277 282 276 281 288 288 285 285 282 279 278 276 276 277 276 273 276 275 277 269 257 253 251 249 248 234 238 235 237 236 237 229
265 269 272 258 252 253 263 271 272 275 277 279 281 268 274 275 284 282 283 279 277 277 274 274 272 270 266 265 268 267 263 264 265 270 269 271 265 263 253 248 245 244 234 232
263 262 258 250 248 263 260 264 271 270 268 268 269 273 276 275 276 278 281 279 277 275 275 272 270 268 266 263 261 260 257 257 256 254 256 263 268 265 263 260 257 248 241 229
269 260 255 254 248 246 257 263 273 278 275 272 268 263 264 268 271 272 272 273 272 272 272 272 272 269 268 266 265 260 256 254 256 252 250 250 250 251 251 248 252 243 245 231
236 314 246 257 249 255 257 264 270 277 279 280 281 278 275 273 270 267 267 269 271 271 270 269 269 268 268 269 266 261 258 253 250 250 247 248 245 244 240 234 236 243 239 241
256 291 287 269 250 256 285 279 277 279 284 286 284 281 280 281 283 281 278 277 275 274 273 271 269 266 266 265 264 264 261 257 250 246 242 243 243 237 238 234 232 232 234 234
257 270 204 289 283 281 281 279 286 283 293 291 284 281 281 282 283 283 282 281 279 278 277 276 273 273 271 267 263 261 261 260 257 251 241 239 239 236 232 231 230 233 235 236
268 250 268 284 288 286 284 290 289 292 288 290 293 293 292 291 288 289 283 281 283 276 273 274 274 273 271 266 264 261 258 256 255 252 245 238 235 232 230 229 228 231 233 236
285 284 283 283 283 291 292 291 287 287 297 302 301 300 298 294 294 293 285 283 284 280 275 271 273 271 269 267 262 262 260 255 251 246 238 236 232 229 222 223 223 225 228 231
286 284 284 284 283 286 286 285 290 304 308 308 305 302 299 296 297 292 290 289 287 284 284 282 281 280 270 268 268 262 257 255 249 243 233 233 227 220 218 221 223 226 228 233
278 274 276 271 283 284 286 301 308 311 314 316 316 311 307 327 333 321 309 308 305 298 302 305 288 282 285 286 279 265 256 247 240 225 228 225 218 217 215 214 210 216 223 227
280 271 258 259 272 277 290 296 314 321 325 334 338 344 354 353 345 328 320 317 310 310 328 306 280 279 291 298 307 313 260 214 207 208 203 190 177 182 185 195 206 213 220 226
274 249 242 257 260 275 288 306 316 327 335 346 354 345 335 333 335 333 329 329 319 332 342 8 298 326 271 36 8 316 97 128 148 154 159 155 153 190 189 186 190 193 199 209
306 263 258 259 266 277 286 296 310 316 326 335 347 355 336 325 326 329 332 337 330 353 351 352 344 92 132 40 114 128 110 110 142 152 155 164 188 190 194 202 202 202 201 205
284 280 281 276 279 282 285 287 297 305 311 322 332 344 350 345 330 323 333 338 331 339 348 347 319 228 179 89 165 162 167 153 142 164 174 178 187 191 197 203 208 215 221 218
278 275 278 279 282 283 285 287 291 297 301 308 317 329 339 344 346 325 327 335 319 323 332 331 341 221 182 157 162 191 182 164 153 154 173 179 183 188 187 189 190 194 186 172
278 276 276 277 279 281 283 285 287 287 290 297 305 312 323 331 340 339 316 325 327 310 322 297 303 297 241 197 172 167 175 181 191 200 195 188 184 185 182 182 179 171 175 182
282 279 277 277 279 280 281 282 282 281 281 284 291 296 302 310 322 336 327 310 317 307 297 273 258 256 255 252 247 216 199 195 198 202 200 191 171 159 155 158 164 176 176 167
313 306 299 291 284 281 281 280 279 278 276 275 278 283 287 291 299 312 329 320 297 296 278 276 249 233 235 237 225 223 211 209 200 186 176 167 166 168 174 179 178 174 178 189
327 324 321 315 310 303 291 282 278 274 274 273 271 271 273 275 283 291 301 315 311 280 278 254 244 223 211 212 219 203 192 178 170 168 170 174 172 168 168 174 185 195 203 208
324 325 324 323 320 311 302 295 286 278 270 265 263 263 263 264 267 273 280 290 301 293 261 267 252 231 199 195 191 191 184 179 173 171 172 177 181 187 192 196 202 209 217 223
325 324 325 325 326 320 311 303 294 284 272 264 257 251 252 254 258 260 264 272 279 281 280 246 247 246 246 212 190 187 190 192 190 189 191 194 198 202 206 210 215 223 230 237
326 325 327 329 329 326 320 313 302 289 279 265 257 250 243 245 246 250 250 254 260 262 260 266 243 237 235 240 235 216 202 201 201 204 205 207 210 214 220 226 230 236 241 244